Flag for Colombia Weather past 2 weeks in Barranquilla, Colombia

Now
86 °F

Scattered clouds.


Feels Like: 97 °F
Forecast: N/A
Wind: 9 mph from Northeast

Location: Barranquilla / Ernestocortissoz

Current Time: Aug 20, 2014 at 5:27:21 PM

Latest Report: Aug 20, 2014 at 5:00 PM


Visibility: 3 mi

Pressure: 29.81 "Hg

Humidity: 75%

Dew point: 77 °F

Location of BarranquillaLocation

Historic Weather in Barranquilla — Graph

°F

Barranquilla temperature yesterday

Maximum temperature yesterday: 91 °F (at 12:00 PM)
Minimum temperature yesterday: 77 °F (at 11:00 PM)
Average temperature yesterday: 84 °F

Past Weeks' High & Low Weather Summary

 TemperatureHumidityPressure
High97 °F (Aug 6, 12:00 PM)100% (Aug 7, 4:00 AM)29.94 "Hg (Aug 7, 4:00 AM)
Low73 °F (Aug 20, 6:00 AM)53% (Aug 6, 12:00 PM)29.76 "Hg (Aug 17, 4:00 PM)
Average84 °F81%29.84 "Hg
* Reported Aug 5 4:00 PM — Aug 20 4:00 PM, Barranquilla, Weather by CustomWeather, © 2014

Note: Actual official high and low records may vary slightly from our data, if they occured in-between our weather recording intervals... More about our weather records

Advertising

Barranquilla weather history for previous 24 hours

 ConditionsComfort  
Time TempWeatherWind HumidityBarometerVisibility
4:00 PM
Aug 20
88 °FScattered clouds.7 mph75%29.81 "Hg3 mi
3:00 PM86 °FScattered clouds.8 mph75%29.82 "Hg2 mi
2:00 PM90 °FScattered clouds.12 mph71%29.83 "Hg1 mi
1:00 PM88 °FScattered clouds.10 mph70%29.86 "Hg2 mi
12:00 PM90 °FScattered clouds.14 mph71%29.87 "Hg2 mi
11:00 AM90 °FScattered clouds.6 mph67%29.88 "HgN/A
10:00 AM90 °FScattered clouds.3 mph63%29.90 "HgN/A
9:00 AM86 °FScattered clouds.3 mph70%29.91 "HgN/A
8:00 AM81 °FPassing clouds.6 mph79%29.90 "HgN/A
7:00 AM75 °FPassing clouds.5 mph94%29.88 "HgN/A
6:00 AM73 °FFog.5 mph100%29.87 "Hg4 mi
5:00 AM75 °FPassing clouds.No wind100%29.85 "HgN/A
4:00 AM75 °FPassing clouds.3 mph100%29.82 "HgN/A
3:00 AM81 °FPassing clouds.5 mph89%29.82 "HgN/A
1:00 AM81 °FPassing clouds.No wind89%29.83 "HgN/A
12:00 AM77 °FPassing clouds.5 mph100%29.86 "HgN/A
11:00 PM
Aug 19
77 °FPassing clouds.3 mph100%29.87 "HgN/A
10:00 PM82 °FPassing clouds.5 mph84%29.86 "HgN/A
9:00 PM82 °FPassing clouds.5 mph79%29.85 "HgN/A
8:00 PM79 °FPassing clouds.5 mph94%29.87 "HgN/A
7:00 PM82 °FPassing clouds.14 mph89%29.88 "HgN/A
6:00 PM84 °FScattered clouds.12 mph79%29.82 "HgN/A
5:00 PM86 °FScattered clouds.12 mph75%29.81 "HgN/A
Weather by CustomWeather, © 2014

See weather overviewHow to use our weather pages